Weather Roundup
Issued by NWS Springfield, MO

Home | Current Version | Previous Version | Text Only | Print | Product List | Glossary On
Versions: 1 2 3 4 5 6 7 8 9 10 11 12 13 14 15 16 17 18 19 20 21 22 23 24 25 26 27 28 29 30 31 32 33 34 35 36 37 38 39 40 41 42 43 44 45 46 47 48 49 50
000
NZUS99 KSGF 151859
HRRSGF

HOURLY WEATHER
NATIONAL WEATHER SERVICE SPRINGFIELD MO
200 PM CDT TUE APR 15 2014

......SGF CWA......

CITY           SKY/WX    TMP DP  RH WIND       PRES   REMARKS
SPRINGFIELD    SUNNY     48  24  39 SW8       30.19F
JOPLIN         SUNNY     52  23  32 VRB6      30.20F
WEST PLAINS    SUNNY     49  22  34 NW14      30.20F
ROLLA          MOSUNNY   45  22  40 NW10      30.19S
OSAGE BEACH    MOSUNNY   46  19  34 W3G17     30.23S
BRANSON        MOSUNNY   46  19  34 CALM      30.22F

......SURROUNDING SGF CWA......

CITY           SKY/WX    TMP DP  RH WIND       PRES   REMARKS
CHANUTE        SUNNY     53  26  35 S9        30.18F
PARSONS        SUNNY     56  23  27 VRB5      30.19F
COFFEYVILLE    SUNNY     57  23  26 W8G23     30.19F
EMPORIA        SUNNY     55  22  27 SW12G22   30.13F
SILOAM SPRINGS SUNNY     55  25  30 N15G21    30.21F
HARRISON AR    SUNNY     50  24  36 W6G16     30.20F
NEAR YELLVILLE SUNNY     50  23  34 W8        30.22F

......KANSAS AND MISSOURI......

CITY           SKY/WX    TMP DP  RH WIND       PRES   REMARKS
KANSAS CTY INT MOSUNNY   50  21  32 S6        30.17F
DOWNTOWN KC    SUNNY     52  21  29 VRB5      30.17F
COLUMBIA       MOSUNNY   46  22  38 NW10      30.21S
SEDALIA        MOSUNNY   47  25  42 SW8       30.21F
ST JOSEPH      SUNNY     48  21  34 S8        30.16F
ST LOUIS       MOSUNNY   46  20  35 N9        30.21F
SPIRIT OF STL  MOSUNNY   46  20  35 VRB7      30.21F
KIRKSVILLE     SUNNY     46  17  31 W12G18    30.19S
WICHITA        MOSUNNY   58  20  22 SW14G22   30.12F
TOPEKA         SUNNY     53  25  33 S10       30.15F
OLATHE         SUNNY     49  24  37 VRB7      30.17F

......TENNESSEE......

CITY           SKY/WX    TMP DP  RH WIND       PRES   REMARKS
MEMPHIS        MOSUNNY   49  22  34 N10G23    30.23S
NASHVILLE      PTSUNNY   47  26  44 NW14G25   30.13F

......ARKANSAS.......

CITY           SKY/WX    TMP DP  RH WIND       PRES   REMARKS
FAYETTEVILLE   SUNNY     54  25  32 NW12      30.20F
FT SMITH       SUNNY     57  26  30 VRB5      30.22F
LITTLE ROCK    MOSUNNY   54  25  32 NW7G16    30.24F

......OKLAHOMA.......

CITY           SKY/WX    TMP DP  RH WIND       PRES   REMARKS
TULSA          SUNNY     59  22  24 CALM      30.19F
PONCA CITY     SUNNY     61  16  17 SW9G17    30.16F
MCALESTER      SUNNY     60  22  23 VRB6      30.23F
OKLAHOMA CITY  MOSUNNY   61  13  15 VRB6      30.19F

......IOWA............

CITY           SKY/WX    TMP DP  RH WIND       PRES   REMARKS
DES MOINES     MOSUNNY   39  18  42 VRB6      30.16F WCI  35
QUAD CITIES    MOSUNNY   40  14  34 W9G22     30.17S WCI  34

......ILLINOIS........

CITY           SKY/WX    TMP DP  RH WIND       PRES   REMARKS
QUINCY         MOSUNNY   43  18  36 NW12G17   30.19F
CHICAGO        PTSUNNY   37  11  34 NW9       30.15R WCI  30



USA.gov is the U.S. government's official web portal to all federal, state and local government web resources and services.